Independence, KS

2:32 AM CDT on May 30, 2017 (GMT -0500)
Independence Municipal

Weather History for KIDP - October, 2012

Change the Weather History Date:

Thursday, October 18, 2012

  Actual Average (KCFV) Record (KCFV)
Temperature  
Mean Temperature 55 °F -  
Max Temperature 64 °F 68 °F 90 °F (2005)
Min Temperature 46 °F 45 °F 37 °F (1996)
Degree Days  
Heating Degree Days 10    
Growing Degree Days 5 (Base 50)    
Moisture  
Dew Point 27 °F    
Average Humidity 36    
Maximum Humidity 62    
Minimum Humidity 21    
Precipitation  
Precipitation 0.00 in - - ()
Sea Level Pressure  
Sea Level Pressure 29.80 in    
Wind  
Wind Speed 13 mph (WNW)    
Max Wind Speed 29 mph    
Max Gust Speed 38 mph    
Visibility 9 miles    
Events      
Averages and records for this station are not official NWS values.
T = Trace of Precipitation, MM = Missing Value Source: NWS Daily Summary

Daily Weather History Graph

Daily Weather History Graph

Search for Another Location

Airport or City:

Trip Planner

Search our weather history database for the weather conditions in past years. The results will help you decide how hot, cold, wet, or windy it might be!

Date:

Astronomy

Oct. 18, 2012 Rise Set
Actual Time 7:34 AM CDT 6:41 PM CDT
Civil Twilight 7:07 AM CDT 7:07 PM CDT
Nautical Twilight 6:37 AM CDT 7:38 PM CDT
Astronomical Twilight 6:07 AM CDT 8:08 PM CDT
Moon 11:12 AM CDT (10/18) 9:21 PM CDT (10/18)
Length of Visible Light 11h 59m
Length of Day
11h 07m
Waxing Crescent, 14% of the Moon is Illuminated
Oct 18
Waxing Crescent
Oct 21
First Quarter
Oct 29
Full
Nov 6
Last Quarter
Nov 13
New

Hourly Weather History & Observations

Time (CDT) Temp. Windchill Dew Point Humidity Pressure Visibility Wind Dir Wind Speed Gust Speed Precip Events Conditions
12:15 AM 50.0 °F - 33.8 °F 54% 29.78 in 10.0 mi WNW 9.2 mph - N/A   Clear
12:35 AM 50.0 °F - 33.8 °F 54% 29.77 in 10.0 mi West 6.9 mph - N/A   Clear
12:55 AM 50.0 °F - 33.8 °F 54% 29.78 in 10.0 mi WNW 8.1 mph - N/A   Clear
1:15 AM 50.0 °F - 33.8 °F 54% 29.78 in 10.0 mi WNW 10.4 mph - N/A   Clear
1:35 AM 48.2 °F - 33.8 °F 58% 29.80 in 10.0 mi West 8.1 mph - N/A   Clear
1:55 AM 46.4 °F 42.9 °F 33.8 °F 62% 29.80 in 10.0 mi West 6.9 mph - N/A   Clear
2:15 AM 46.4 °F 42.4 °F 33.8 °F 62% 29.80 in 10.0 mi West 8.1 mph - N/A   Clear
2:35 AM 46.4 °F 44.3 °F 33.8 °F 62% 29.80 in 10.0 mi West 4.6 mph - N/A   Clear
2:55 AM 48.2 °F - 32.0 °F 54% 29.81 in 10.0 mi West 9.2 mph - N/A   Clear
3:15 AM 46.4 °F 42.4 °F 32.0 °F 57% 29.81 in 10.0 mi West 8.1 mph - N/A   Clear
3:35 AM 46.4 °F 42.9 °F 32.0 °F 57% 29.80 in 10.0 mi West 6.9 mph - N/A   Clear
3:55 AM 46.4 °F 42.4 °F 32.0 °F 57% 29.80 in 10.0 mi West 8.1 mph - N/A   Clear
4:15 AM 46.4 °F 41.9 °F 30.2 °F 53% 29.80 in 10.0 mi West 9.2 mph - N/A   Clear
4:35 AM 46.4 °F 41.5 °F 30.2 °F 53% 29.80 in 10.0 mi West 10.4 mph - N/A   Clear
4:55 AM 46.4 °F 41.5 °F 30.2 °F 53% 29.81 in 10.0 mi West 10.4 mph - N/A   Clear
5:15 AM 48.2 °F - 28.4 °F 46% 29.82 in 10.0 mi West 12.7 mph 18.4 mph N/A   Clear
5:35 AM 48.2 °F - 28.4 °F 46% 29.82 in 10.0 mi West 11.5 mph - N/A   Clear
5:55 AM 48.2 °F - 30.2 °F 50% 29.83 in 10.0 mi West 10.4 mph - N/A   Clear
6:35 AM 50.0 °F - 28.4 °F 43% 29.84 in 10.0 mi West 10.4 mph - N/A   Clear
6:55 AM 50.0 °F - 28.4 °F 43% 29.84 in 10.0 mi WNW 12.7 mph 20.7 mph N/A   Clear
7:15 AM 48.2 °F - 28.4 °F 46% 29.85 in 10.0 mi WNW 12.7 mph 17.3 mph N/A   Clear
7:35 AM 46.4 °F 41.5 °F 28.4 °F 50% 29.85 in 10.0 mi West 10.4 mph - N/A   Clear
7:55 AM 48.2 °F - 30.2 °F 50% 29.85 in 10.0 mi WNW 10.4 mph - N/A   Clear
8:15 AM 50.0 °F - 28.4 °F 43% 29.85 in 10.0 mi West 12.7 mph 18.4 mph N/A   Clear
8:35 AM 50.0 °F - 28.4 °F 43% 29.85 in 10.0 mi West 12.7 mph - N/A   Clear
8:55 AM 51.8 °F - 28.4 °F 41% 29.85 in 10.0 mi West 15.0 mph 19.6 mph N/A   Clear
9:15 AM 51.8 °F - 28.4 °F 41% 29.86 in 10.0 mi West 16.1 mph - N/A   Clear
9:35 AM 53.6 °F - 28.4 °F 38% 29.85 in 10.0 mi WNW 19.6 mph 25.3 mph N/A   Clear
9:55 AM 55.4 °F - 28.4 °F 36% 29.85 in 10.0 mi West 18.4 mph 24.2 mph N/A   Clear
10:15 AM 55.4 °F - 28.4 °F 36% 29.85 in 10.0 mi West 24.2 mph - N/A   Clear
10:35 AM 57.2 °F - 26.6 °F 31% 29.84 in 10.0 mi WNW 27.6 mph 36.8 mph N/A   Clear
10:55 AM 59.0 °F - 26.6 °F 29% 29.84 in 10.0 mi WNW 24.2 mph 32.2 mph N/A   Clear
11:15 AM 59.0 °F - 24.8 °F 27% 29.84 in 10.0 mi WNW 20.7 mph 32.2 mph N/A   Clear
11:35 AM 59.0 °F - 24.8 °F 27% 29.83 in 10.0 mi West 24.2 mph 31.1 mph N/A   Clear
11:55 AM 60.8 °F - 24.8 °F 25% 29.83 in 10.0 mi WNW 26.5 mph 32.2 mph N/A   Clear
12:15 PM 60.8 °F - 24.8 °F 25% 29.83 in 10.0 mi WNW 27.6 mph 35.7 mph N/A   Clear
12:35 PM 60.8 °F - 23.0 °F 23% 29.82 in 10.0 mi West 23.0 mph 34.5 mph N/A   Clear
12:55 PM 62.6 °F - 23.0 °F 22% 29.81 in 10.0 mi WNW 23.0 mph 33.4 mph N/A   Clear
1:15 PM 62.6 °F - 23.0 °F 22% 29.80 in 10.0 mi West 21.9 mph 33.4 mph N/A   Clear
1:35 PM 62.6 °F - 23.0 °F 22% 29.79 in 10.0 mi WNW 26.5 mph 35.7 mph N/A   Clear
1:55 PM 62.6 °F - 23.0 °F 22% 29.79 in 10.0 mi West 27.6 mph 38.0 mph N/A   Clear
2:15 PM 64.4 °F - 23.0 °F 21% 29.78 in 10.0 mi West 26.5 mph 35.7 mph N/A   Clear
2:35 PM 64.4 °F - 23.0 °F 21% 29.78 in 10.0 mi WNW 24.2 mph 35.7 mph N/A   Clear
2:55 PM 64.4 °F - 23.0 °F 21% 29.78 in 10.0 mi WNW 26.5 mph 38.0 mph N/A   Clear
3:15 PM 64.4 °F - 24.8 °F 22% 29.77 in 10.0 mi WNW 24.2 mph 33.4 mph N/A   Clear
3:35 PM 64.4 °F - 26.6 °F 24% 29.77 in 10.0 mi WNW 24.2 mph 32.2 mph N/A   Clear
3:55 PM 64.4 °F - 26.6 °F 24% 29.77 in 10.0 mi West 28.8 mph 38.0 mph N/A   Clear
4:15 PM 64.4 °F - 24.8 °F 22% 29.77 in 10.0 mi WNW 20.7 mph 35.7 mph N/A   Clear
4:35 PM 64.4 °F - 26.6 °F 24% 29.77 in 10.0 mi WNW 23.0 mph 32.2 mph N/A   Clear
4:55 PM 64.4 °F - 24.8 °F 22% 29.77 in 7.0 mi WNW 23.0 mph 36.8 mph N/A   Clear
5:15 PM 64.4 °F - 24.8 °F 22% 29.77 in 7.0 mi WNW 18.4 mph 33.4 mph N/A   Clear
5:35 PM 62.6 °F - 24.8 °F 24% 29.77 in 7.0 mi WNW 17.3 mph 26.5 mph N/A   Scattered Clouds
5:55 PM 62.6 °F - 24.8 °F 24% 29.77 in 7.0 mi WNW 18.4 mph 23.0 mph N/A   Mostly Cloudy
6:15 PM 62.6 °F - 23.0 °F 22% 29.78 in 5.0 mi WNW 16.1 mph 24.2 mph N/A   Haze
6:35 PM 62.6 °F - 23.0 °F 22% 29.78 in 5.0 mi WNW 10.4 mph 19.6 mph N/A   Haze
6:55 PM 62.6 °F - 23.0 °F 22% 29.78 in 7.0 mi WNW 11.5 mph 20.7 mph N/A   Overcast
7:15 PM 62.6 °F - 24.8 °F 24% 29.78 in 5.0 mi West 11.5 mph 16.1 mph N/A   Haze
7:35 PM 60.8 °F - 23.0 °F 23% 29.78 in 5.0 mi West 15.0 mph 18.4 mph N/A   Haze
7:55 PM 60.8 °F - 23.0 °F 23% 29.78 in 5.0 mi West 12.7 mph 19.6 mph N/A   Haze
8:15 PM 60.8 °F - 23.0 °F 23% 29.79 in 5.0 mi West 12.7 mph - N/A   Haze
8:35 PM 60.8 °F - 23.0 °F 23% 29.80 in 5.0 mi WNW 12.7 mph 20.7 mph N/A   Haze
8:55 PM 60.8 °F - 24.8 °F 25% 29.80 in 5.0 mi WNW 11.5 mph 16.1 mph N/A   Haze
9:15 PM 60.8 °F - 26.6 °F 27% 29.79 in 5.0 mi West 9.2 mph - N/A   Haze
9:35 PM 60.8 °F - 26.6 °F 27% 29.79 in 5.0 mi West 10.4 mph - N/A   Haze
9:55 PM 59.0 °F - 26.6 °F 29% 29.79 in 5.0 mi West 9.2 mph - N/A   Haze
10:15 PM 59.0 °F - 26.6 °F 29% 29.79 in 5.0 mi West 9.2 mph - N/A   Haze
10:35 PM 59.0 °F - 26.6 °F 29% 29.80 in 5.0 mi West 10.4 mph - N/A   Haze
10:55 PM 59.0 °F - 26.6 °F 29% 29.80 in 5.0 mi West 11.5 mph - N/A   Haze